Regional Weather Roundup
Issued by NWS Green Bay, WI

Home | Current Version | Previous Version | Graphics & Text | Print | Product List | Glossary Off
Versions: 1 2 3 4 5 6 7 8 9 10 11 12 13 14 15 16 17 18 19 20 21 22 23 24 25 26 27 28 29 30 31 32 33 34 35 36 37 38 39 40 41 42 43 44 45 46 47 48 49 50

000
ASUS43 KGRB 262259
RWRGRB

NORTH-CENTRAL AND NORTHEAST WISCONSIN REGIONAL WEATHER ROUNDUP
NATIONAL WEATHER SERVICE GREEN BAY WI
500 PM CST THU FEB 26 2015

WIZ005-009-010>012-018-019-270000-
NORTH CENTRAL WISCONSIN

CITY           SKY/WX    TMP DP  RH WIND       PRES   REMARKS
IRONWOOD       CLEAR      5  -8  56 NW10      30.29S WCI -10
MANITOWISH WTR NOT AVBL
ARBOR VITAE    NOT AVBL
EAGLE RIVER    NOT AVBL
LAND O LAKES   NOT AVBL
RHINELANDER    CLEAR      7 -10  46 N9        30.24S WCI  -7
PHILLIPS       NOT AVBL
ANTIGO         NOT AVBL
TOMAHAWK       NOT AVBL
MERRILL        NOT AVBL
$$

WIZ013-073-270000-
NORTHEAST WISCONSIN

CITY           SKY/WX    TMP DP  RH WIND       PRES   REMARKS
IRON MOUNTAIN  CLEAR      9  -9  44 NW10      30.25R WCI  -5
MARINETTE      CLEAR      9  -4  56 S5        30.31R WCI   0
$$

WIZ017-030-035>037-045-270000-
CENTRAL WISCONSIN

CITY           SKY/WX    TMP DP  RH WIND       PRES   REMARKS
MEDFORD        NOT AVBL
WAUSAU         CLEAR     10  -8  44 NW9       30.27S WCI  -3
MOSINEE        PTCLDY     9  -6  52 W8        30.29R WCI  -4
MARSHFIELD     CLEAR      8  -6  52 NW13      30.31R WCI  -8
WISC RAPIDS    CLEAR      9  -9  44 NW12      30.34R WCI  -6
STEVENS POINT  NOT AVBL
WAUPACA        NOT AVBL
SHAWANO        NOT AVBL
CLINTONVILLE   NOT AVBL
$$

WIZ038-039-048-051-270000-
FOX VALLEY

CITY           SKY/WX    TMP DP  RH WIND       PRES   REMARKS
NWS GREEN BAY  CLEAR     13  -4  46 W5        30.31S WCI   5
APPLETON       PTCLDY    10  -8  44 N9        30.31R WCI  -2
OSHKOSH        PTCLDY    10  -4  53 E5        30.32R WCI   2
FOND DU LAC    CLEAR     10  -5  50 E3        30.33R
$$

WIZ022-050-052-270000-
EAST CENTRAL WISCONSIN

CITY           SKY/WX    TMP DP  RH WIND       PRES   REMARKS
STURGEON BAY   CLEAR      9  -6  52 SW3       30.33R
MANITOWOC      NOT AVBL
SHEBOYGAN      CLEAR     10  -5  50 N9        30.32R WCI  -3
$$

LMZ563-521-522-541>543-270000-
LAKESHORE

STATION/POSITION TIME  TEMP    WIND        PRES    VSBY  WAVE
                       AIR SEA DIR/SP/G                  HT/PER
                 (UTC) (F)     (DEG/KT/KT) (MB)    (MI)  (FT/S)
SHEBOYGAN LKSHOR 2200   10     340/ 10/ 13 1028.5R
KEWAUNEE LKSHORE 2200   11     350/  7/  9 1025.8S
TWO RIVERS CG    2200   10                 1026.6      6   0
NORTHPORT PIER   2200   10     310/  2/  8 1026.4S
SISTER BAY LKSHO 2200   17        CALM       N/A
STURGEON BAY CG  2200   11      40/  4     1026.3      6
CHAMBERS ISLAND  2200    7      70/  5/  7 1026.4S
MENOMINEE LKSHOR 2200    7     160/  6     1027.1R
$$


USA.gov is the U.S. government's official web portal to all federal, state and local government web resources and services.